CDT,Max TemperatureF,Mean TemperatureF,Min TemperatureF,Max Dew PointF,MeanDew PointF,Min DewpointF,Max Humidity, Mean Humidity, Min Humidity, Max Sea Level PressureIn, Mean Sea Level PressureIn, Min Sea Level PressureIn, Max VisibilityMiles, Mean VisibilityMiles, Min VisibilityMiles, Max Wind SpeedMPH, Mean Wind SpeedMPH, Max Gust SpeedMPH,PrecipitationIn, CloudCover, Events, WindDirDegrees
2012-10-1,74,68,61,72,66,60,100,94,87,29.71,29.57,29.47,10,8,1,16,8,21,0.56,8,Rain,220
2012-10-2,75,65,55,61,57,54,100,75,49,30.01,29.84,29.71,10,9,5,15,4,20,T,5,Rain,309
2012-10-3,80,66,52,63,58,52,100,74,48,30.16,30.08,30.01,10,9,5,10,2,22,0.00,0,,180
2012-10-4,83,70,56,66,59,55,100,72,43,30.26,30.20,30.17,10,6,2,9,1,13,0.00,0,,98
2012-10-5,84,70,55,67,58,55,100,71,42,30.19,30.12,30.01,10,6,1,9,1,13,0.00,1,,176
2012-10-6,75,66,56,63,58,52,100,82,64,30.09,30.05,29.99,10,8,2,18,7,22,0.00,6,,358
2012-10-7,64,56,47,52,48,44,93,74,55,30.19,30.13,30.08,10,10,10,17,9,24,0.00,5,,357
2012-10-8,66,56,45,50,47,45,100,76,52,30.21,30.15,30.10,10,10,10,15,6,20,0.00,3,,354
2012-10-9,72,56,40,56,47,40,100,72,44,30.17,30.11,30.04,10,10,10,9,1,13,0.00,0,,294
2012-10-10,80,65,49,64,57,48,100,79,58,30.20,30.14,30.09,10,10,9,12,4,15,0.00,3,,317
2012-10-11,83,68,52,67,59,52,100,74,47,30.27,30.21,30.18,10,8,6,8,1,10,0.00,0,,333
2012-10-12,85,70,55,67,60,55,100,72,44,30.28,30.22,30.19,10,7,2,7,1,10,0.00,0,,135
2012-10-13,85,71,56,68,61,55,100,78,55,30.26,30.19,30.10,10,7,1,16,5,21,0.00,1,,174
2012-10-14,83,74,65,70,67,64,100,79,58,30.18,30.06,29.97,10,8,4,21,7,30,0.06,3,Rain-Thunderstorm,195
2012-10-15,80,66,52,70,60,47,100,68,35,30.04,29.99,29.95,10,7,0,15,5,18,0.01,1,Fog,325
2012-10-16,75,62,48,58,52,45,100,68,35,30.02,29.95,29.88,10,10,10,8,2,12,0.01,0,,150
2012-10-17,79,63,47,64,56,47,100,73,46,29.89,29.81,29.72,10,10,10,20,8,25,0.00,1,,179
2012-10-18,76,62,48,68,58,35,100,62,23,29.91,29.80,29.69,10,8,0,21,5,26,1.98,4,Fog-Rain-Thunderstorm,298
2012-10-19,74,59,43,51,43,31,100,61,22,29.91,29.87,29.82,10,10,9,22,6,30,0.00,0,,222
2012-10-20,76,59,42,56,46,40,100,65,29,30.01,29.96,29.91,10,10,10,13,1,16,0.00,0,,269
2012-10-21,80,62,44,58,50,43,100,68,36,30.13,30.08,30.00,10,10,10,9,2,15,0.00,0,,167
2012-10-22,81,64,47,60,52,46,100,68,36,30.18,30.12,30.07,10,10,10,9,2,13,0.00,0,,121
2012-10-23,80,64,47,63,55,46,100,73,45,30.16,30.09,30.04,10,9,7,10,1,17,0.00,0,,207
2012-10-24,81,67,53,63,57,52,100,73,45,30.14,30.07,30.01,10,10,10,10,2,14,0.00,1,,154
2012-10-25,81,66,51,64,58,50,100,75,49,30.05,30.00,29.96,10,10,7,10,2,14,0.00,1,,157
2012-10-26,83,67,50,64,56,47,100,71,42,30.05,29.99,29.92,10,9,4,18,6,24,0.00,3,Rain,333
2012-10-27,53,50,47,48,44,42,93,82,71,30.07,30.03,29.98,10,10,6,18,11,26,0.00,8,,347
2012-10-28,62,52,41,42,37,32,89,61,32,30.13,30.04,29.99,10,10,10,24,12,30,0.00,1,,336
2012-10-29,59,49,38,36,33,28,85,59,33,30.17,30.11,30.05,10,10,10,21,10,28,0.00,0,,331
2012-10-30,64,49,33,41,33,26,96,62,27,30.06,30.01,29.95,10,10,10,18,5,25,0.00,0,,292
2012-10-31,74,57,39,57,46,38,100,68,35,30.02,29.98,29.94,10,9,3,16,3,22,0.00,3,,238